Location: Chircca
(13.7944°S, 72.0608°W)
Time: 05:21:31
(UTC+00:00)

Cosmos 841 Rocket - Pass Details

Date: 14 July 2020
Orbit: 747 x 772 km, 74.0° (Epoch: 14 August)

Event Time Altitude Azimuth Distance (km) Brightness Sun altitude
Rises 09:48:12 0° 343° (NNW) 3,204 6.7 -20.1°
Reaches altitude 10° 09:50:33 10° 341° (NNW) 2,288 6.0 -19.6°
Maximum altitude 09:55:44 73° 257° (WSW) 805 3.4 -18.4°
Drops below altitude 10° 10:01:00 10° 172° (S) 2,321 5.9 -17.2°
Sets 10:03:24 0° 170° (S) 3,255 6.7 -16.6°
